Location: Baili�vre
(50.0696°N, 4.2409°E)
Time: 08:07:27
(UTC+00:00)

Cosmos 2016 Rocket - Pass Details

Date: 08 August 2020
Orbit: 946 x 1001 km, 83.0° (Epoch: 26 September)

Event Time Altitude Azimuth Distance (km) Brightness Sun altitude
Exits shadow 22:39:55 41° 186° (S) 1,403 4.4 -22.4°
Maximum altitude 22:42:20 89° 98° (E) 1,004 4.0 -22.5°
Drops below altitude 10° 22:48:46 10° 10° (N) 2,784 7.3 -22.8°
Sets 22:51:19 0° 10° (N) 3,739 8.1 -22.9°
